Time,TemperatureF,DewpointF,PressureIn,WindDirection,WindDirectionDegrees,WindSpeedMPH,WindSpeedGustMPH,Humidity,HourlyPrecipIn,Conditions,Clouds,dailyrainin,SoftwareType,DateUTC
2013-05-13 00:00:00,73.5,42.7,29.90,NE,44,3.0,3.0,33,0.00,,---,0.00,VWS V14.01,2013-05-13 07:00:00,
2013-05-13 00:02:00,73.5,42.7,29.90,NE,45,0.0,4.0,33,0.00,,---,0.00,VWS V14.01,2013-05-13 07:02:00,
2013-05-13 00:07:00,73.5,42.7,29.90,NE,45,0.0,5.0,33,0.00,,---,0.00,VWS V14.01,2013-05-13 07:07:00,
2013-05-13 00:12:00,73.5,41.9,29.90,NE,45,0.0,5.0,32,0.00,,---,0.00,VWS V14.01,2013-05-13 07:12:00,
2013-05-13 00:15:00,73.5,41.9,29.90,NE,45,5.0,5.0,32,0.00,,---,0.00,VWS V14.01,2013-05-13 07:15:00,
2013-05-13 00:17:00,73.5,41.9,29.90,NE,49,3.0,6.0,32,0.00,,---,0.00,VWS V14.01,2013-05-13 07:17:00,
2013-05-13 00:22:00,73.7,42.8,29.90,NE,49,2.0,6.0,33,0.00,,---,0.00,VWS V14.01,2013-05-13 07:22:00,
2013-05-13 00:27:00,73.9,43.0,29.90,NE,49,3.0,6.0,33,0.00,,---,0.00,VWS V14.01,2013-05-13 07:27:00,
2013-05-13 00:30:00,73.9,43.0,29.90,NE,49,3.0,6.0,33,0.00,,---,0.00,VWS V14.01,2013-05-13 07:30:00,
2013-05-13 00:32:00,73.8,42.9,29.90,NE,48,3.0,4.0,33,0.00,,---,0.00,VWS V14.01,2013-05-13 07:32:00,
2013-05-13 00:37:00,73.7,43.6,29.90,NE,49,3.0,6.0,34,0.00,,---,0.00,VWS V14.01,2013-05-13 07:37:00,
2013-05-13 00:43:00,73.7,42.8,29.90,NE,53,6.0,6.0,33,0.00,,---,0.00,VWS V14.01,2013-05-13 07:43:00,
2013-05-13 00:45:00,73.7,42.8,29.90,NE,55,3.0,6.0,33,0.00,,---,0.00,VWS V14.01,2013-05-13 07:45:00,
2013-05-13 00:48:00,73.6,42.8,29.90,NE,54,3.0,3.0,33,0.00,,---,0.00,VWS V14.01,2013-05-13 07:48:00,
2013-05-13 00:53:00,73.5,42.7,29.90,NE,55,1.0,3.0,33,0.00,,---,0.00,VWS V14.01,2013-05-13 07:53:00,
2013-05-13 00:58:00,73.3,42.5,29.90,NE,55,0.0,3.0,33,0.00,,---,0.00,VWS V14.01,2013-05-13 07:58:00,
2013-05-13 01:00:00,73.3,42.5,29.90,NE,55,2.0,4.0,33,0.00,,---,0.00,VWS V14.01,2013-05-13 08:00:00,
2013-05-13 01:03:00,73.1,42.3,29.89,NE,54,3.0,3.0,33,0.00,,---,0.00,VWS V14.01,2013-05-13 08:03:00,
2013-05-13 01:08:00,72.9,42.1,29.89,NE,51,2.0,5.0,33,0.00,,---,0.00,VWS V14.01,2013-05-13 08:08:00,
2013-05-13 01:13:00,72.7,42.0,29.89,NE,51,3.0,5.0,33,0.00,,---,0.00,VWS V14.01,2013-05-13 08:13:00,
2013-05-13 01:15:00,72.6,41.9,29.89,NE,53,3.0,5.0,33,0.00,,---,0.00,VWS V14.01,2013-05-13 08:15:00,
2013-05-13 01:18:00,72.6,41.9,29.89,NE,52,3.0,5.0,33,0.00,,---,0.00,VWS V14.01,2013-05-13 08:18:00,
2013-05-13 01:23:00,72.5,41.8,29.89,NE,53,1.0,5.0,33,0.00,,---,0.00,VWS V14.01,2013-05-13 08:23:00,
2013-05-13 01:28:00,72.4,41.7,29.89,NE,53,2.0,5.0,33,0.00,,---,0.00,VWS V14.01,2013-05-13 08:28:00,
2013-05-13 01:30:00,72.4,41.7,29.89,NE,53,2.0,5.0,33,0.00,,---,0.00,VWS V14.01,2013-05-13 08:30:00,
2013-05-13 01:33:00,72.4,41.7,29.89,NE,53,4.0,4.0,33,0.00,,---,0.00,VWS V14.01,2013-05-13 08:33:00,
2013-05-13 01:38:00,72.3,42.4,29.89,NE,53,3.0,5.0,34,0.00,,---,0.00,VWS V14.01,2013-05-13 08:38:00,
2013-05-13 01:43:00,72.2,41.5,29.88,NE,52,4.0,5.0,33,0.00,,---,0.00,VWS V14.01,2013-05-13 08:43:00,
2013-05-13 01:45:00,72.2,41.5,29.88,NE,52,0.0,5.0,33,0.00,,---,0.00,VWS V14.01,2013-05-13 08:45:00,
2013-05-13 01:48:00,72.2,41.5,29.89,NE,53,2.0,3.0,33,0.00,,---,0.00,VWS V14.01,2013-05-13 08:48:00,
2013-05-13 01:53:00,72.2,41.5,29.89,NE,52,3.0,4.0,33,0.00,,---,0.00,VWS V14.01,2013-05-13 08:53:00,
2013-05-13 01:58:00,72.2,40.7,29.88,NE,52,5.0,6.0,32,0.00,,---,0.00,VWS V14.01,2013-05-13 08:58:00,
2013-05-13 02:00:00,72.3,41.6,29.88,ENE,57,6.0,8.0,33,0.00,,---,0.00,VWS V14.01,2013-05-13 09:00:00,
2013-05-13 02:03:00,72.4,40.9,29.88,ENE,57,6.0,8.0,32,0.00,,---,0.00,VWS V14.01,2013-05-13 09:03:00,
2013-05-13 02:08:00,72.7,41.2,29.88,NE,55,4.0,9.0,32,0.00,,---,0.00,VWS V14.01,2013-05-13 09:08:00,
2013-05-13 02:13:00,72.9,41.3,29.88,NE,47,3.0,9.0,32,0.00,,---,0.00,VWS V14.01,2013-05-13 09:13:00,
2013-05-13 02:15:00,73.0,41.4,29.88,NE,52,3.0,9.0,32,0.00,,---,0.00,VWS V14.01,2013-05-13 09:15:00,
2013-05-13 02:18:00,73.0,41.4,29.88,NE,51,3.0,4.0,32,0.00,,---,0.00,VWS V14.01,2013-05-13 09:18:00,
2013-05-13 02:23:00,73.0,41.4,29.88,NE,55,4.0,6.0,32,0.00,,---,0.00,VWS V14.01,2013-05-13 09:23:00,
2013-05-13 02:28:00,73.0,41.4,29.88,NE,53,4.0,6.0,32,0.00,,---,0.00,VWS V14.01,2013-05-13 09:28:00,
2013-05-13 02:30:00,73.0,41.4,29.88,NE,54,3.0,6.0,32,0.00,,---,0.00,VWS V14.01,2013-05-13 09:30:00,
2013-05-13 02:33:00,73.1,41.5,29.87,NE,49,3.0,6.0,32,0.00,,---,0.00,VWS V14.01,2013-05-13 09:33:00,
2013-05-13 02:38:00,73.2,41.6,29.88,NE,48,2.0,6.0,32,0.00,,---,0.00,VWS V14.01,2013-05-13 09:38:00,
2013-05-13 02:43:00,73.3,41.7,29.87,NE,51,5.0,7.0,32,0.00,,---,0.00,VWS V14.01,2013-05-13 09:43:00,
2013-05-13 02:45:00,73.3,41.7,29.87,NE,50,5.0,7.0,32,0.00,,---,0.00,VWS V14.01,2013-05-13 09:45:00,
2013-05-13 02:48:00,73.4,41.8,29.87,NE,52,4.0,5.0,32,0.00,,---,0.00,VWS V14.01,2013-05-13 09:48:00,
2013-05-13 02:53:00,73.4,41.8,29.87,NE,54,2.0,5.0,32,0.00,,---,0.00,VWS V14.01,2013-05-13 09:53:00,
2013-05-13 02:58:00,73.4,41.8,29.87,NE,49,4.0,5.0,32,0.00,,---,0.00,VWS V14.01,2013-05-13 09:58:00,
2013-05-13 03:00:00,73.4,41.8,29.87,NE,49,3.0,5.0,32,0.00,,---,0.00,VWS V14.01,2013-05-13 10:00:00,
2013-05-13 03:03:00,73.4,41.8,29.87,NE,51,3.0,5.0,32,0.00,,---,0.00,VWS V14.01,2013-05-13 10:03:00,
2013-05-13 03:08:00,73.3,41.7,29.87,NE,51,2.0,5.0,32,0.00,,---,0.00,VWS V14.01,2013-05-13 10:08:00,
2013-05-13 03:13:00,73.1,42.3,29.87,NE,51,1.0,5.0,33,0.00,,---,0.00,VWS V14.01,2013-05-13 10:13:00,
2013-05-13 03:15:00,73.1,42.3,29.87,NE,51,3.0,5.0,33,0.00,,---,0.00,VWS V14.01,2013-05-13 10:15:00,
2013-05-13 03:18:00,73.0,42.2,29.87,NE,51,1.0,3.0,33,0.00,,---,0.00,VWS V14.01,2013-05-13 10:18:00,
2013-05-13 03:23:00,72.8,42.8,29.87,NE,51,1.0,4.0,34,0.00,,---,0.00,VWS V14.01,2013-05-13 10:23:00,
2013-05-13 03:28:00,72.6,42.7,29.87,NE,51,0.0,4.0,34,0.00,,---,0.00,VWS V14.01,2013-05-13 10:28:00,
2013-05-13 03:30:00,72.5,42.6,29.87,NE,51,0.0,4.0,34,0.00,,---,0.00,VWS V14.01,2013-05-13 10:30:00,
2013-05-13 03:33:00,72.4,43.2,29.87,NE,51,0.0,3.0,35,0.00,,---,0.00,VWS V14.01,2013-05-13 10:33:00,
2013-05-13 03:38:00,72.2,43.8,29.87,NE,51,2.0,4.0,36,0.00,,---,0.00,VWS V14.01,2013-05-13 10:38:00,
2013-05-13 03:43:00,71.9,44.2,29.87,NE,51,1.0,4.0,37,0.00,,---,0.00,VWS V14.01,2013-05-13 10:43:00,
2013-05-13 03:45:00,71.8,44.2,29.87,NE,50,0.0,4.0,37,0.00,,---,0.00,VWS V14.01,2013-05-13 10:45:00,
2013-05-13 03:48:00,71.6,44.7,29.87,NE,51,2.0,2.0,38,0.00,,---,0.00,VWS V14.01,2013-05-13 10:48:00,
2013-05-13 03:53:00,71.4,44.5,29.87,NE,51,0.0,3.0,38,0.00,,---,0.00,VWS V14.01,2013-05-13 10:53:00,
2013-05-13 03:58:00,71.3,44.4,29.87,NE,51,0.0,3.0,38,0.00,,---,0.00,VWS V14.01,2013-05-13 10:58:00,
2013-05-13 04:00:00,71.3,45.8,29.87,NE,49,0.0,3.0,40,0.00,,---,0.00,VWS V14.01,2013-05-13 11:00:00,
2013-05-13 04:04:00,71.2,45.0,29.87,NE,51,0.0,0.0,39,0.00,,---,0.00,VWS V14.01,2013-05-13 11:04:00,
2013-05-13 04:09:00,71.0,46.1,29.87,NE,51,0.0,0.0,41,0.00,,---,0.00,VWS V14.01,2013-05-13 11:09:00,
2013-05-13 04:14:00,70.9,44.7,29.87,NE,51,0.0,0.0,39,0.00,,---,0.00,VWS V14.01,2013-05-13 11:14:00,
2013-05-13 04:15:00,70.8,45.3,29.87,NE,50,0.0,0.0,40,0.00,,---,0.00,VWS V14.01,2013-05-13 11:15:00,
2013-05-13 04:19:00,70.7,45.2,29.87,NE,51,0.0,0.0,40,0.00,,---,0.00,VWS V14.01,2013-05-13 11:19:00,
2013-05-13 04:24:00,70.6,46.4,29.87,NE,51,1.0,3.0,42,0.00,,---,0.00,VWS V14.01,2013-05-13 11:24:00,
2013-05-13 04:29:00,70.4,47.5,29.87,NE,50,0.0,3.0,44,0.00,,---,0.00,VWS V14.01,2013-05-13 11:29:00,
2013-05-13 04:30:00,70.3,47.4,29.88,NE,51,0.0,3.0,44,0.00,,---,0.00,VWS V14.01,2013-05-13 11:30:00,
2013-05-13 04:34:00,70.1,46.6,29.88,NE,51,0.0,0.0,43,0.00,,---,0.00,VWS V14.01,2013-05-13 11:34:00,
2013-05-13 04:39:00,70.0,46.5,29.87,NE,50,0.0,0.0,43,0.00,,---,0.00,VWS V14.01,2013-05-13 11:39:00,
2013-05-13 04:44:00,69.9,48.2,29.87,NE,51,0.0,3.0,46,0.00,,---,0.00,VWS V14.01,2013-05-13 11:44:00,
2013-05-13 04:45:00,69.9,48.2,29.87,NE,51,0.0,3.0,46,0.00,,---,0.00,VWS V14.01,2013-05-13 11:45:00,
2013-05-13 04:49:00,69.8,47.5,29.87,NE,51,0.0,0.0,45,0.00,,---,0.00,VWS V14.01,2013-05-13 11:49:00,
2013-05-13 04:54:00,69.6,47.3,29.87,NE,49,3.0,3.0,45,0.00,,---,0.00,VWS V14.01,2013-05-13 11:54:00,
2013-05-13 04:59:00,69.3,48.2,29.87,NE,51,2.0,4.0,47,0.00,,---,0.00,VWS V14.01,2013-05-13 11:59:00,
2013-05-13 05:00:00,69.2,48.1,29.87,NE,50,3.0,4.0,47,0.00,,---,0.00,VWS V14.01,2013-05-13 12:00:00,
2013-05-13 05:04:00,69.0,48.0,29.88,NE,51,2.0,3.0,47,0.00,,---,0.00,VWS V14.01,2013-05-13 12:04:00,
2013-05-13 05:09:00,68.7,46.5,29.88,NE,51,1.0,3.0,45,0.00,,---,0.00,VWS V14.01,2013-05-13 12:09:00,
2013-05-13 05:14:00,68.5,46.3,29.88,NE,50,2.0,3.0,45,0.00,,---,0.00,VWS V14.01,2013-05-13 12:14:00,
2013-05-13 05:15:00,68.4,46.2,29.88,NE,51,3.0,3.0,45,0.00,,---,0.00,VWS V14.01,2013-05-13 12:15:00,
2013-05-13 05:19:00,68.2,46.1,29.88,NE,49,2.0,4.0,45,0.00,,---,0.00,VWS V14.01,2013-05-13 12:19:00,
2013-05-13 05:24:00,68.0,45.9,29.88,NE,51,2.0,4.0,45,0.00,,---,0.00,VWS V14.01,2013-05-13 12:24:00,
2013-05-13 05:29:00,67.9,45.8,29.88,NE,51,3.0,4.0,45,0.00,,---,0.00,VWS V14.01,2013-05-13 12:29:00,
2013-05-13 05:30:00,67.9,46.4,29.88,NE,51,0.0,4.0,46,0.00,,---,0.00,VWS V14.01,2013-05-13 12:30:00,
2013-05-13 05:34:00,67.8,46.9,29.88,NE,51,0.0,1.0,47,0.00,,---,0.00,VWS V14.01,2013-05-13 12:34:00,
2013-05-13 05:39:00,67.6,46.1,29.88,NE,51,0.0,2.0,46,0.00,,---,0.00,VWS V14.01,2013-05-13 12:39:00,
2013-05-13 05:44:00,67.5,46.0,29.88,NE,51,0.0,2.0,46,0.00,,---,0.00,VWS V14.01,2013-05-13 12:44:00,
2013-05-13 05:45:00,67.5,46.0,29.89,NE,51,2.0,2.0,46,0.00,,---,0.00,VWS V14.01,2013-05-13 12:45:00,
2013-05-13 05:49:00,67.4,45.9,29.89,NE,51,1.0,3.0,46,0.00,,---,0.00,VWS V14.01,2013-05-13 12:49:00,
2013-05-13 05:54:00,67.4,45.9,29.89,NE,51,2.0,4.0,46,0.00,,---,0.00,VWS V14.01,2013-05-13 12:54:00,
2013-05-13 05:59:00,67.4,46.5,29.89,NE,51,1.0,4.0,47,0.00,,---,0.00,VWS V14.01,2013-05-13 12:59:00,
2013-05-13 06:00:00,67.4,46.5,29.89,NE,51,1.0,4.0,47,0.00,,---,0.00,VWS V14.01,2013-05-13 13:00:00,
2013-05-13 06:04:00,67.4,46.5,29.90,NE,51,0.0,3.0,47,0.00,,---,0.00,VWS V14.01,2013-05-13 13:04:00,
2013-05-13 06:09:00,67.5,47.1,29.89,NE,51,0.0,3.0,48,0.00,,---,0.00,VWS V14.01,2013-05-13 13:09:00,
2013-05-13 06:14:00,67.6,47.2,29.90,NE,51,2.0,3.0,48,0.00,,---,0.00,VWS V14.01,2013-05-13 13:14:00,
2013-05-13 06:15:00,67.6,47.2,29.90,NE,51,2.0,3.0,48,0.00,,---,0.00,VWS V14.01,2013-05-13 13:15:00,
2013-05-13 06:19:00,67.6,47.8,29.90,NE,49,2.0,3.0,49,0.00,,---,0.00,VWS V14.01,2013-05-13 13:19:00,
2013-05-13 06:24:00,67.6,47.8,29.90,NE,51,0.0,3.0,49,0.00,,---,0.00,VWS V14.01,2013-05-13 13:24:00,
2013-05-13 06:29:00,67.7,47.9,29.90,NE,51,1.0,4.0,49,0.00,,---,0.00,VWS V14.01,2013-05-13 13:29:00,
2013-05-13 06:30:00,67.7,47.9,29.90,NE,51,3.0,4.0,49,0.00,,---,0.00,VWS V14.01,2013-05-13 13:30:00,
2013-05-13 06:34:00,67.8,48.0,29.90,NE,50,0.0,3.0,49,0.00,,---,0.00,VWS V14.01,2013-05-13 13:34:00,
2013-05-13 06:39:00,68.0,47.6,29.90,NE,51,0.0,3.0,48,0.00,,---,0.00,VWS V14.01,2013-05-13 13:39:00,
2013-05-13 06:44:00,68.3,49.0,29.90,NE,51,0.0,3.0,50,0.00,,---,0.00,VWS V14.01,2013-05-13 13:44:00,
2013-05-13 06:45:00,68.3,49.0,29.91,NE,51,0.0,3.0,50,0.00,,---,0.00,VWS V14.01,2013-05-13 13:45:00,
2013-05-13 06:49:00,68.8,50.0,29.91,NE,51,1.0,3.0,51,0.00,,---,0.00,VWS V14.01,2013-05-13 13:49:00,
2013-05-13 06:54:00,69.2,49.8,29.91,NE,51,3.0,5.0,50,0.00,,---,0.00,VWS V14.01,2013-05-13 13:54:00,
2013-05-13 06:59:00,69.5,49.5,29.91,NE,51,1.0,5.0,49,0.00,,---,0.00,VWS V14.01,2013-05-13 13:59:00,
2013-05-13 07:00:00,69.5,49.5,29.90,NE,51,3.0,5.0,49,0.00,,---,0.00,VWS V14.01,2013-05-13 14:00:00,
2013-05-13 07:04:00,69.8,50.3,29.91,NE,51,2.0,3.0,50,0.00,,---,0.00,VWS V14.01,2013-05-13 14:04:00,
2013-05-13 07:09:00,70.2,50.2,29.91,NE,51,0.0,4.0,49,0.00,,---,0.00,VWS V14.01,2013-05-13 14:09:00,
2013-05-13 07:14:00,70.6,50.5,29.91,NE,51,0.0,4.0,49,0.00,,---,0.00,VWS V14.01,2013-05-13 14:14:00,
2013-05-13 07:15:00,70.7,50.1,29.91,North,360,0.0,4.0,48,0.00,,---,0.00,VWS V14.01,2013-05-13 14:15:00,
2013-05-13 07:19:00,71.0,50.3,29.91,NE,51,0.0,0.0,48,0.00,,---,0.00,VWS V14.01,2013-05-13 14:19:00,
2013-05-13 07:24:00,71.5,51.4,29.91,NE,51,0.0,3.0,49,0.00,,---,0.00,VWS V14.01,2013-05-13 14:24:00,
2013-05-13 07:29:00,72.1,51.3,29.92,NE,51,0.0,3.0,48,0.00,,---,0.00,VWS V14.01,2013-05-13 14:29:00,
2013-05-13 07:30:00,72.2,51.4,29.92,NE,51,0.0,3.0,48,0.00,,---,0.00,VWS V14.01,2013-05-13 14:30:00,
2013-05-13 07:34:00,72.6,52.4,29.91,NE,51,0.0,0.0,49,0.00,,---,0.00,VWS V14.01,2013-05-13 14:34:00,
2013-05-13 07:39:00,73.3,53.0,29.91,NE,51,0.0,0.0,49,0.00,,---,0.00,VWS V14.01,2013-05-13 14:39:00,
2013-05-13 07:44:00,73.9,53.6,29.92,NE,51,0.0,0.0,49,0.00,,---,0.00,VWS V14.01,2013-05-13 14:44:00,
2013-05-13 07:45:00,74.0,54.7,29.92,NE,51,0.0,0.0,51,0.00,,---,0.00,VWS V14.01,2013-05-13 14:45:00,
2013-05-13 07:50:00,74.6,53.6,29.92,NE,51,0.0,0.0,48,0.00,,---,0.00,VWS V14.01,2013-05-13 14:50:00,
2013-05-13 07:55:00,75.2,53.6,29.92,NE,51,0.0,0.0,47,0.00,,---,0.00,VWS V14.01,2013-05-13 14:55:00,
2013-05-13 08:00:00,75.8,51.7,29.92,NE,51,0.0,0.0,43,0.00,,---,0.00,VWS V14.01,2013-05-13 15:00:00,
2013-05-13 08:05:00,76.6,51.2,29.92,NE,51,0.0,0.0,41,0.00,,---,0.00,VWS V14.01,2013-05-13 15:05:00,
2013-05-13 08:10:00,77.4,51.9,29.93,NE,51,0.0,0.0,41,0.00,,---,0.00,VWS V14.01,2013-05-13 15:10:00,
2013-05-13 08:15:00,78.2,52.6,29.92,NE,51,0.0,0.0,41,0.00,,---,0.00,VWS V14.01,2013-05-13 15:15:00,
2013-05-13 08:20:00,79.0,54.6,29.92,NE,51,0.0,0.0,43,0.00,,---,0.00,VWS V14.01,2013-05-13 15:20:00,
2013-05-13 08:25:00,79.5,53.8,29.92,NE,50,0.0,1.0,41,0.00,,---,0.00,VWS V14.01,2013-05-13 15:25:00,
2013-05-13 08:30:00,80.1,52.9,29.92,NE,51,0.0,2.0,39,0.00,,---,0.00,VWS V14.01,2013-05-13 15:30:00,
2013-05-13 08:35:00,80.5,53.3,29.92,NE,51,1.0,1.0,39,0.00,,---,0.00,VWS V14.01,2013-05-13 15:35:00,
2013-05-13 08:40:00,81.0,53.0,29.92,NE,51,0.0,3.0,38,0.00,,---,0.00,VWS V14.01,2013-05-13 15:40:00,
2013-05-13 08:45:00,81.5,53.5,29.92,NE,51,0.0,3.0,38,0.00,,---,0.00,VWS V14.01,2013-05-13 15:45:00,
2013-05-13 08:50:00,82.1,53.3,29.92,NE,51,0.0,1.0,37,0.00,,---,0.00,VWS V14.01,2013-05-13 15:50:00,
2013-05-13 08:55:00,82.6,53.7,29.92,NE,51,3.0,3.0,37,0.00,,---,0.00,VWS V14.01,2013-05-13 15:55:00,
2013-05-13 09:00:00,83.1,52.6,29.93,NE,51,0.0,3.0,35,0.00,,---,0.00,VWS V14.01,2013-05-13 16:00:00,
2013-05-13 09:05:00,83.6,49.8,29.93,NE,51,0.0,0.0,31,0.00,,---,0.00,VWS V14.01,2013-05-13 16:05:00,
2013-05-13 09:10:00,84.5,52.3,29.93,NE,51,0.0,1.0,33,0.00,,---,0.00,VWS V14.01,2013-05-13 16:10:00,
2013-05-13 09:15:00,85.5,54.0,29.93,NE,51,0.0,1.0,34,0.00,,---,0.00,VWS V14.01,2013-05-13 16:15:00,
2013-05-13 09:20:00,86.6,51.5,29.93,NE,51,0.0,1.0,30,0.00,,---,0.00,VWS V14.01,2013-05-13 16:20:00,
2013-05-13 09:25:00,87.8,53.4,29.93,NE,51,0.0,3.0,31,0.00,,---,0.00,VWS V14.01,2013-05-13 16:25:00,
2013-05-13 09:30:00,88.9,53.5,29.93,NE,51,0.0,3.0,30,0.00,,---,0.00,VWS V14.01,2013-05-13 16:30:00,
2013-05-13 09:35:00,90.0,51.6,29.92,NE,51,0.0,0.0,27,0.00,,---,0.00,VWS V14.01,2013-05-13 16:35:00,
2013-05-13 09:40:00,91.3,53.7,29.92,NE,51,0.0,1.0,28,0.00,,---,0.00,VWS V14.01,2013-05-13 16:40:00,
2013-05-13 09:45:00,91.8,54.1,29.92,NE,51,0.0,1.0,28,0.00,,---,0.00,VWS V14.01,2013-05-13 16:45:00,
2013-05-13 09:50:00,92.1,53.3,29.92,NE,51,0.0,1.0,27,0.00,,---,0.00,VWS V14.01,2013-05-13 16:50:00,
2013-05-13 09:55:00,92.5,53.7,29.92,NE,51,0.0,1.0,27,0.00,,---,0.00,VWS V14.01,2013-05-13 16:55:00,
2013-05-13 10:00:00,93.1,54.2,29.92,NE,51,0.0,1.0,27,0.00,,---,0.00,VWS V14.01,2013-05-13 17:00:00,
2013-05-13 10:05:00,93.3,54.4,29.92,NE,51,0.0,0.0,27,0.00,,---,0.00,VWS V14.01,2013-05-13 17:05:00,
2013-05-13 10:10:00,93.5,55.5,29.92,NE,49,0.0,3.0,28,0.00,,---,0.00,VWS V14.01,2013-05-13 17:10:00,
2013-05-13 10:15:00,93.9,54.9,29.92,SW,217,5.0,5.0,27,0.00,,---,0.00,VWS V14.01,2013-05-13 17:15:00,
2013-05-13 10:20:00,93.7,55.7,29.92,SW,225,2.0,6.0,28,0.00,,---,0.00,VWS V14.01,2013-05-13 17:20:00,
2013-05-13 10:25:00,93.6,56.6,29.91,SSW,206,0.0,6.0,29,0.00,,---,0.00,VWS V14.01,2013-05-13 17:25:00,
2013-05-13 10:30:00,93.9,55.9,29.92,WSW,241,2.0,2.0,28,0.00,,---,0.00,VWS V14.01,2013-05-13 17:30:00,
2013-05-13 10:35:00,93.8,54.8,29.92,West,259,1.0,3.0,27,0.00,,---,0.00,VWS V14.01,2013-05-13 17:35:00,
2013-05-13 10:40:00,94.0,56.0,29.92,WSW,242,3.0,6.0,28,0.00,,---,0.00,VWS V14.01,2013-05-13 17:40:00,
2013-05-13 10:45:00,94.2,56.1,29.92,SSW,195,5.0,5.0,28,0.00,,---,0.00,VWS V14.01,2013-05-13 17:45:00,
2013-05-13 10:50:00,94.4,55.3,29.92,South,177,0.0,7.0,27,0.00,,---,0.00,VWS V14.01,2013-05-13 17:50:00,
2013-05-13 10:55:00,94.8,57.6,29.92,West,263,2.0,7.0,29,0.00,,---,0.00,VWS V14.01,2013-05-13 17:55:00,
2013-05-13 11:00:00,94.9,57.7,29.92,SW,227,1.0,4.0,29,0.00,,---,0.00,VWS V14.01,2013-05-13 18:00:00,
2013-05-13 11:05:00,94.6,55.5,29.92,WSW,252,4.0,6.0,27,0.00,,---,0.00,VWS V14.01,2013-05-13 18:05:00,
2013-05-13 11:11:00,94.6,55.5,29.92,WSW,250,3.0,6.0,27,0.00,,---,0.00,VWS V14.01,2013-05-13 18:11:00,
2013-05-13 11:15:00,94.8,58.6,29.92,SW,232,1.0,6.0,30,0.00,,---,0.00,VWS V14.01,2013-05-13 18:15:00,
2013-05-13 11:16:00,94.8,56.7,29.92,SW,221,1.0,2.0,28,0.00,,---,0.00,VWS V14.01,2013-05-13 18:16:00,
2013-05-13 11:21:00,95.1,56.9,29.92,SW,229,5.0,9.0,28,0.00,,---,0.00,VWS V14.01,2013-05-13 18:21:00,
2013-05-13 11:26:00,95.3,55.0,29.92,SW,234,5.0,9.0,26,0.00,,---,0.00,VWS V14.01,2013-05-13 18:26:00,
2013-05-13 11:30:00,95.3,57.1,29.92,WSW,252,4.0,9.0,28,0.00,,---,0.00,VWS V14.01,2013-05-13 18:30:00,
2013-05-13 11:31:00,95.3,57.1,29.92,WSW,252,0.0,4.0,28,0.00,,---,0.00,VWS V14.01,2013-05-13 18:31:00,
2013-05-13 11:36:00,95.4,57.2,29.91,West,265,4.0,5.0,28,0.00,,---,0.00,VWS V14.01,2013-05-13 18:36:00,
2013-05-13 11:41:00,95.5,61.0,29.91,SW,223,4.0,6.0,32,0.00,,---,0.00,VWS V14.01,2013-05-13 18:41:00,
2013-05-13 11:45:00,95.7,60.3,29.91,SW,215,6.0,7.0,31,0.00,,---,0.00,VWS V14.01,2013-05-13 18:45:00,
2013-05-13 11:46:00,95.7,60.3,29.91,SW,215,3.0,6.0,31,0.00,,---,0.00,VWS V14.01,2013-05-13 18:46:00,
2013-05-13 11:51:00,95.6,60.2,29.91,West,262,1.0,6.0,31,0.00,,---,0.00,VWS V14.01,2013-05-13 18:51:00,
2013-05-13 11:56:00,95.6,59.2,29.91,WSW,241,2.0,10.0,30,0.00,,---,0.00,VWS V14.01,2013-05-13 18:56:00,
2013-05-13 12:00:00,95.1,58.8,29.91,WSW,256,3.0,10.0,30,0.00,,---,0.00,VWS V14.01,2013-05-13 19:00:00,
2013-05-13 12:01:00,95.0,58.7,29.92,WSW,246,0.0,4.0,30,0.00,,---,0.00,VWS V14.01,2013-05-13 19:01:00,
2013-05-13 12:06:00,94.6,58.4,29.91,WSW,248,3.0,9.0,30,0.00,,---,0.00,VWS V14.01,2013-05-13 19:06:00,
2013-05-13 12:11:00,94.4,58.2,29.91,SW,232,2.0,9.0,30,0.00,,---,0.00,VWS V14.01,2013-05-13 19:11:00,
2013-05-13 12:15:00,94.1,56.0,29.91,WSW,253,4.0,9.0,28,0.00,,---,0.00,VWS V14.01,2013-05-13 19:15:00,
2013-05-13 12:16:00,94.1,59.8,29.91,SW,235,6.0,9.0,32,0.00,,---,0.00,VWS V14.01,2013-05-13 19:16:00,
2013-05-13 12:21:00,94.0,57.9,29.91,WSW,238,4.0,9.0,30,0.00,,---,0.00,VWS V14.01,2013-05-13 19:21:00,
2013-05-13 12:26:00,94.0,59.7,29.91,West,261,4.0,10.0,32,0.00,,---,0.00,VWS V14.01,2013-05-13 19:26:00,
2013-05-13 12:30:00,94.4,58.2,29.91,SW,229,4.0,10.0,30,0.00,,---,0.00,VWS V14.01,2013-05-13 19:30:00,
2013-05-13 12:31:00,94.5,58.3,29.91,SW,234,4.0,5.0,30,0.00,,---,0.00,VWS V14.01,2013-05-13 19:31:00,
2013-05-13 12:36:00,94.8,57.6,29.91,SW,236,5.0,9.0,29,0.00,,---,0.00,VWS V14.01,2013-05-13 19:36:00,
2013-05-13 12:41:00,94.9,60.5,29.91,WSW,252,6.0,9.0,32,0.00,,---,0.00,VWS V14.01,2013-05-13 19:41:00,
2013-05-13 12:45:00,95.2,62.4,29.90,WSW,252,6.0,10.0,34,0.00,,---,0.00,VWS V14.01,2013-05-13 19:45:00,
2013-05-13 12:46:00,95.2,62.4,29.90,SW,215,9.0,9.0,34,0.00,,---,0.00,VWS V14.01,2013-05-13 19:46:00,
2013-05-13 12:51:00,95.5,61.8,29.90,WSW,249,2.0,9.0,33,0.00,,---,0.00,VWS V14.01,2013-05-13 19:51:00,
2013-05-13 12:56:00,95.1,59.7,29.90,West,268,1.0,9.0,31,0.00,,---,0.00,VWS V14.01,2013-05-13 19:56:00,
2013-05-13 13:00:00,95.0,61.4,29.90,WSW,242,3.0,10.0,33,0.00,,---,0.00,VWS V14.01,2013-05-13 20:00:00,
2013-05-13 13:01:00,95.0,60.5,29.90,WSW,252,3.0,6.0,32,0.00,,---,0.00,VWS V14.01,2013-05-13 20:01:00,
2013-05-13 13:06:00,94.8,59.5,29.90,SW,224,3.0,11.0,31,0.00,,---,0.00,VWS V14.01,2013-05-13 20:06:00,
2013-05-13 13:11:00,95.0,61.4,29.90,WSW,254,3.0,11.0,33,0.00,,---,0.00,VWS V14.01,2013-05-13 20:11:00,
2013-05-13 13:15:00,95.2,62.4,29.90,WSW,248,5.0,11.0,34,0.00,,---,0.00,VWS V14.01,2013-05-13 20:15:00,
2013-05-13 13:16:00,95.2,59.8,29.90,WSW,245,7.0,10.0,31,0.00,,---,0.00,VWS V14.01,2013-05-13 20:16:00,
2013-05-13 13:21:00,94.8,58.6,29.89,West,281,4.0,11.0,30,0.00,,---,0.00,VWS V14.01,2013-05-13 20:21:00,
2013-05-13 13:26:00,94.5,60.1,29.89,WSW,246,2.0,11.0,32,0.00,,---,0.00,VWS V14.01,2013-05-13 20:26:00,
2013-05-13 13:30:00,94.5,61.0,29.89,West,278,3.0,11.0,33,0.00,,---,0.00,VWS V14.01,2013-05-13 20:30:00,
2013-05-13 13:31:00,94.5,61.0,29.89,SSW,194,4.0,6.0,33,0.00,,---,0.00,VWS V14.01,2013-05-13 20:31:00,
2013-05-13 13:36:00,94.2,59.0,29.89,WSW,243,5.0,11.0,31,0.00,,---,0.00,VWS V14.01,2013-05-13 20:36:00,
2013-05-13 13:41:00,94.2,58.0,29.89,WSW,257,7.0,11.0,30,0.00,,---,0.00,VWS V14.01,2013-05-13 20:41:00,
2013-05-13 13:45:00,94.1,58.0,29.89,WSW,253,6.0,12.0,30,0.00,,---,0.00,VWS V14.01,2013-05-13 20:45:00,
2013-05-13 13:46:00,94.1,58.9,29.89,WSW,239,5.0,7.0,31,0.00,,---,0.00,VWS V14.01,2013-05-13 20:46:00,
2013-05-13 13:51:00,93.9,55.9,29.89,West,267,6.0,12.0,28,0.00,,---,0.00,VWS V14.01,2013-05-13 20:51:00,
2013-05-13 13:56:00,93.6,55.6,29.89,West,272,4.0,12.0,28,0.00,,---,0.00,VWS V14.01,2013-05-13 20:56:00,
2013-05-13 14:00:00,93.3,56.3,29.89,WSW,252,10.0,12.0,29,0.00,,---,0.00,VWS V14.01,2013-05-13 21:00:00,
2013-05-13 14:01:00,93.3,57.3,29.89,WNW,288,5.0,10.0,30,0.00,,---,0.00,VWS V14.01,2013-05-13 21:01:00,
2013-05-13 14:06:00,93.5,59.2,29.88,SW,234,1.0,11.0,32,0.00,,---,0.00,VWS V14.01,2013-05-13 21:06:00,
2013-05-13 14:11:00,94.0,57.9,29.88,WSW,245,9.0,12.0,30,0.00,,---,0.00,VWS V14.01,2013-05-13 21:11:00,
2013-05-13 14:15:00,94.2,58.0,29.88,WNW,284,2.0,13.0,30,0.00,,---,0.00,VWS V14.01,2013-05-13 21:15:00,
2013-05-13 14:16:00,94.2,55.1,29.88,WNW,300,3.0,12.0,27,0.00,,---,0.00,VWS V14.01,2013-05-13 21:16:00,
2013-05-13 14:21:00,94.2,58.0,29.88,WSW,248,3.0,12.0,30,0.00,,---,0.00,VWS V14.01,2013-05-13 21:21:00,
2013-05-13 14:27:00,94.2,56.1,29.88,West,263,9.0,13.0,28,0.00,,---,0.00,VWS V14.01,2013-05-13 21:27:00,
2013-05-13 14:30:00,94.1,58.0,29.88,WNW,295,1.0,13.0,30,0.00,,---,0.00,VWS V14.01,2013-05-13 21:30:00,
2013-05-13 14:32:00,94.1,57.0,29.88,West,263,3.0,5.0,29,0.00,,---,0.00,VWS V14.01,2013-05-13 21:32:00,
2013-05-13 14:37:00,94.5,57.4,29.88,WNW,291,5.0,10.0,29,0.00,,---,0.00,VWS V14.01,2013-05-13 21:37:00,
2013-05-13 14:42:00,94.5,55.4,29.88,NNE,20,9.0,10.0,27,0.00,,---,0.00,VWS V14.01,2013-05-13 21:42:00,
2013-05-13 14:45:00,94.4,54.3,29.88,WNW,296,4.0,12.0,26,0.00,,---,0.00,VWS V14.01,2013-05-13 21:45:00,
2013-05-13 14:47:00,94.4,54.3,29.88,NW,304,10.0,12.0,26,0.00,,---,0.00,VWS V14.01,2013-05-13 21:47:00,
2013-05-13 14:52:00,93.7,54.7,29.87,NW,312,5.0,13.0,27,0.00,,---,0.00,VWS V14.01,2013-05-13 21:52:00,
2013-05-13 14:57:00,93.9,56.8,29.87,WNW,285,1.0,13.0,29,0.00,,---,0.00,VWS V14.01,2013-05-13 21:57:00,
2013-05-13 15:00:00,93.8,54.8,29.87,WNW,290,7.0,13.0,27,0.00,,---,0.00,VWS V14.01,2013-05-13 22:00:00,
2013-05-13 15:02:00,93.8,54.8,29.87,West,259,7.0,10.0,27,0.00,,---,0.00,VWS V14.01,2013-05-13 22:02:00,
2013-05-13 15:07:00,93.8,54.8,29.87,West,269,5.0,12.0,27,0.00,,---,0.00,VWS V14.01,2013-05-13 22:07:00,
2013-05-13 15:12:00,93.7,55.7,29.87,WSW,258,7.0,12.0,28,0.00,,---,0.00,VWS V14.01,2013-05-13 22:12:00,
2013-05-13 15:15:00,93.8,55.8,29.87,West,264,7.0,12.0,28,0.00,,---,0.00,VWS V14.01,2013-05-13 22:15:00,
2013-05-13 15:17:00,93.9,55.9,29.87,WSW,241,7.0,10.0,28,0.00,,---,0.00,VWS V14.01,2013-05-13 22:17:00,
2013-05-13 15:22:00,94.0,58.8,29.87,WSW,248,2.0,10.0,31,0.00,,---,0.00,VWS V14.01,2013-05-13 22:22:00,
2013-05-13 15:27:00,94.1,55.0,29.86,SW,232,5.0,11.0,27,0.00,,---,0.00,VWS V14.01,2013-05-13 22:27:00,
2013-05-13 15:30:00,94.1,55.0,29.86,NW,304,4.0,12.0,27,0.00,,---,0.00,VWS V14.01,2013-05-13 22:30:00,
2013-05-13 15:32:00,93.9,54.9,29.86,WNW,300,7.0,11.0,27,0.00,,---,0.00,VWS V14.01,2013-05-13 22:32:00,
2013-05-13 15:37:00,93.9,56.8,29.86,West,267,5.0,12.0,29,0.00,,---,0.00,VWS V14.01,2013-05-13 22:37:00,
2013-05-13 15:42:00,93.9,57.8,29.86,West,278,4.0,12.0,30,0.00,,---,0.00,VWS V14.01,2013-05-13 22:42:00,
2013-05-13 15:45:00,94.0,57.9,29.86,WNW,289,4.0,12.0,30,0.00,,---,0.00,VWS V14.01,2013-05-13 22:45:00,
2013-05-13 15:47:00,94.0,58.8,29.86,WSW,244,4.0,9.0,31,0.00,,---,0.00,VWS V14.01,2013-05-13 22:47:00,
2013-05-13 15:52:00,94.0,59.7,29.86,West,262,5.0,11.0,32,0.00,,---,0.00,VWS V14.01,2013-05-13 22:52:00,
2013-05-13 15:57:00,94.0,57.9,29.86,West,259,5.0,11.0,30,0.00,,---,0.00,VWS V14.01,2013-05-13 22:57:00,
2013-05-13 16:00:00,94.1,57.0,29.86,WSW,257,9.0,11.0,29,0.00,,---,0.00,VWS V14.01,2013-05-13 23:00:00,
2013-05-13 16:02:00,94.1,57.0,29.86,West,261,6.0,10.0,29,0.00,,---,0.00,VWS V14.01,2013-05-13 23:02:00,
2013-05-13 16:07:00,94.0,57.9,29.86,West,276,4.0,13.0,30,0.00,,---,0.00,VWS V14.01,2013-05-13 23:07:00,
2013-05-13 16:12:00,93.9,58.7,29.86,NW,324,1.0,13.0,31,0.00,,---,0.00,VWS V14.01,2013-05-13 23:12:00,
2013-05-13 16:15:00,93.5,56.5,29.85,West,265,4.0,13.0,29,0.00,,---,0.00,VWS V14.01,2013-05-13 23:15:00,
2013-05-13 16:17:00,93.4,55.5,29.86,WSW,257,5.0,7.0,28,0.00,,---,0.00,VWS V14.01,2013-05-13 23:17:00,
2013-05-13 16:22:00,93.4,55.5,29.85,West,278,3.0,10.0,28,0.00,,---,0.00,VWS V14.01,2013-05-13 23:22:00,
2013-05-13 16:27:00,93.2,57.2,29.85,West,269,5.0,13.0,30,0.00,,---,0.00,VWS V14.01,2013-05-13 23:27:00,
2013-05-13 16:30:00,93.2,59.0,29.85,WSW,252,4.0,13.0,32,0.00,,---,0.00,VWS V14.01,2013-05-13 23:30:00,
2013-05-13 16:32:00,93.3,57.3,29.85,WNW,295,5.0,7.0,30,0.00,,---,0.00,VWS V14.01,2013-05-13 23:32:00,
2013-05-13 16:37:00,93.3,53.3,29.85,NW,306,6.0,11.0,26,0.00,,---,0.00,VWS V14.01,2013-05-13 23:37:00,
2013-05-13 16:42:00,93.1,54.2,29.85,WSW,248,4.0,12.0,27,0.00,,---,0.00,VWS V14.01,2013-05-13 23:42:00,
2013-05-13 16:45:00,93.1,55.2,29.85,WNW,303,5.0,12.0,28,0.00,,---,0.00,VWS V14.01,2013-05-13 23:45:00,
2013-05-13 16:47:00,93.1,55.2,29.85,NW,307,7.0,10.0,28,0.00,,---,0.00,VWS V14.01,2013-05-13 23:47:00,
2013-05-13 16:52:00,93.1,55.2,29.85,West,261,5.0,10.0,28,0.00,,---,0.00,VWS V14.01,2013-05-13 23:52:00,
2013-05-13 16:57:00,92.6,56.7,29.85,West,265,5.0,12.0,30,0.00,,---,0.00,VWS V14.01,2013-05-13 23:57:00,
2013-05-13 17:00:00,92.2,57.2,29.85,WNW,300,5.0,12.0,31,0.00,,---,0.00,VWS V14.01,2013-05-14 00:00:00,
2013-05-13 17:02:00,92.1,56.2,29.85,NW,315,4.0,10.0,30,0.00,,---,0.00,VWS V14.01,2013-05-14 00:02:00,
2013-05-13 17:07:00,91.8,57.8,29.85,WSW,254,5.0,10.0,32,0.00,,---,0.00,VWS V14.01,2013-05-14 00:07:00,
2013-05-13 17:12:00,91.3,58.2,29.85,West,280,4.0,11.0,33,0.00,,---,0.00,VWS V14.01,2013-05-14 00:12:00,
2013-05-13 17:15:00,91.1,59.7,29.85,West,277,6.0,11.0,35,0.00,,---,0.00,VWS V14.01,2013-05-14 00:15:00,
2013-05-13 17:17:00,91.0,57.9,29.85,NW,306,8.0,11.0,33,0.00,,---,0.00,VWS V14.01,2013-05-14 00:17:00,
2013-05-13 17:22:00,90.8,59.4,29.85,WSW,245,3.0,11.0,35,0.00,,---,0.00,VWS V14.01,2013-05-14 00:22:00,
2013-05-13 17:27:00,90.8,57.8,29.85,West,266,6.0,11.0,33,0.00,,---,0.00,VWS V14.01,2013-05-14 00:27:00,
2013-05-13 17:30:00,90.8,55.1,29.85,NNW,337,9.0,11.0,30,0.00,,---,0.00,VWS V14.01,2013-05-14 00:30:00,
2013-05-13 17:32:00,90.8,55.1,29.85,NW,304,1.0,9.0,30,0.00,,---,0.00,VWS V14.01,2013-05-14 00:32:00,
2013-05-13 17:37:00,90.7,52.2,29.85,NW,304,8.0,14.0,27,0.00,,---,0.00,VWS V14.01,2013-05-14 00:37:00,
2013-05-13 17:42:00,90.1,52.6,29.85,West,278,5.0,14.0,28,0.00,,---,0.00,VWS V14.01,2013-05-14 00:42:00,
2013-05-13 17:45:00,89.9,54.3,29.85,WNW,286,6.0,14.0,30,0.00,,---,0.00,VWS V14.01,2013-05-14 00:45:00,
2013-05-13 17:47:00,89.7,55.1,29.85,West,272,3.0,11.0,31,0.00,,---,0.00,VWS V14.01,2013-05-14 00:47:00,
2013-05-13 17:52:00,89.4,55.7,29.85,WNW,286,0.0,11.0,32,0.00,,---,0.00,VWS V14.01,2013-05-14 00:52:00,
2013-05-13 17:57:00,89.1,56.3,29.85,West,260,0.0,11.0,33,0.00,,---,0.00,VWS V14.01,2013-05-14 00:57:00,
2013-05-13 18:00:00,89.0,55.3,29.84,WNW,303,7.0,11.0,32,0.00,,---,0.00,VWS V14.01,2013-05-14 01:00:00,
2013-05-13 18:02:00,88.9,56.1,29.84,WNW,290,4.0,10.0,33,0.00,,---,0.00,VWS V14.01,2013-05-14 01:02:00,
2013-05-13 18:07:00,88.8,57.7,29.84,West,263,7.0,10.0,35,0.00,,---,0.00,VWS V14.01,2013-05-14 01:07:00,
2013-05-13 18:12:00,88.7,55.9,29.84,NNW,332,7.0,11.0,33,0.00,,---,0.00,VWS V14.01,2013-05-14 01:12:00,
2013-05-13 18:15:00,88.6,55.8,29.84,West,271,3.0,11.0,33,0.00,,---,0.00,VWS V14.01,2013-05-14 01:15:00,
2013-05-13 18:17:00,88.5,57.4,29.84,West,269,3.0,4.0,35,0.00,,---,0.00,VWS V14.01,2013-05-14 01:17:00,
2013-05-13 18:22:00,88.4,55.7,29.84,WSW,256,4.0,11.0,33,0.00,,---,0.00,VWS V14.01,2013-05-14 01:22:00,
2013-05-13 18:27:00,88.2,55.5,29.84,WSW,242,3.0,11.0,33,0.00,,---,0.00,VWS V14.01,2013-05-14 01:27:00,
2013-05-13 18:30:00,88.0,55.3,29.84,West,273,1.0,11.0,33,0.00,,---,0.00,VWS V14.01,2013-05-14 01:30:00,
2013-05-13 18:32:00,87.9,56.1,29.84,WNW,288,1.0,6.0,34,0.00,,---,0.00,VWS V14.01,2013-05-14 01:32:00,
2013-05-13 18:37:00,87.7,55.1,29.84,NW,304,4.0,6.0,33,0.00,,---,0.00,VWS V14.01,2013-05-14 01:37:00,
2013-05-13 18:42:00,87.3,55.5,29.84,West,265,2.0,7.0,34,0.00,,---,0.00,VWS V14.01,2013-05-14 01:42:00,
2013-05-13 18:45:00,87.1,54.5,29.85,NW,319,3.0,7.0,33,0.00,,---,0.00,VWS V14.01,2013-05-14 01:45:00,
2013-05-13 18:47:00,87.0,54.5,29.85,West,265,4.0,7.0,33,0.00,,---,0.00,VWS V14.01,2013-05-14 01:47:00,
2013-05-13 18:52:00,86.7,55.0,29.85,NW,304,1.0,7.0,34,0.00,,---,0.00,VWS V14.01,2013-05-14 01:52:00,
2013-05-13 18:57:00,86.4,54.7,29.85,West,279,2.0,7.0,34,0.00,,---,0.00,VWS V14.01,2013-05-14 01:57:00,
2013-05-13 19:00:00,86.2,54.6,29.84,WSW,257,2.0,7.0,34,0.00,,---,0.00,VWS V14.01,2013-05-14 02:00:00,
2013-05-13 19:02:00,86.0,53.6,29.84,West,260,5.0,6.0,33,0.00,,---,0.00,VWS V14.01,2013-05-14 02:02:00,
2013-05-13 19:07:00,85.6,54.0,29.84,West,267,2.0,10.0,34,0.00,,---,0.00,VWS V14.01,2013-05-14 02:07:00,
2013-05-13 19:12:00,85.1,54.4,29.84,WNW,290,1.0,10.0,35,0.00,,---,0.00,VWS V14.01,2013-05-14 02:12:00,
2013-05-13 19:15:00,84.8,54.9,29.84,WNW,298,2.0,10.0,36,0.00,,---,0.00,VWS V14.01,2013-05-14 02:15:00,
2013-05-13 19:17:00,84.6,55.5,29.84,WNW,286,3.0,7.0,37,0.00,,---,0.00,VWS V14.01,2013-05-14 02:17:00,
2013-05-13 19:22:00,84.1,55.0,29.84,WNW,290,1.0,7.0,37,0.00,,---,0.00,VWS V14.01,2013-05-14 02:22:00,
2013-05-13 19:27:00,83.6,56.0,29.84,WNW,298,0.0,7.0,39,0.00,,---,0.00,VWS V14.01,2013-05-14 02:27:00,
2013-05-13 19:30:00,83.3,55.8,29.85,West,267,1.0,7.0,39,0.00,,---,0.00,VWS V14.01,2013-05-14 02:30:00,
2013-05-13 19:33:00,83.1,56.3,29.84,NW,313,1.0,4.0,40,0.00,,---,0.00,VWS V14.01,2013-05-14 02:33:00,
2013-05-13 19:38:00,82.6,57.9,29.84,West,260,0.0,4.0,43,0.00,,---,0.00,VWS V14.01,2013-05-14 02:38:00,
2013-05-13 19:43:00,82.0,54.6,29.85,WSW,257,0.0,4.0,39,0.00,,---,0.00,VWS V14.01,2013-05-14 02:43:00,
2013-05-13 19:48:00,81.5,54.2,29.85,WSW,257,0.0,3.0,39,0.00,,---,0.00,VWS V14.01,2013-05-14 02:48:00,
2013-05-13 19:53:00,81.3,53.3,29.85,West,260,0.0,3.0,38,0.00,,---,0.00,VWS V14.01,2013-05-14 02:53:00,
2013-05-13 19:58:00,81.2,53.9,29.85,WNW,290,0.0,3.0,39,0.00,,---,0.00,VWS V14.01,2013-05-14 02:58:00,
2013-05-13 20:00:00,81.1,53.1,29.85,WNW,291,0.0,3.0,38,0.00,,---,0.00,VWS V14.01,2013-05-14 03:00:00,
2013-05-13 20:03:00,81.0,53.0,29.84,WNW,291,1.0,2.0,38,0.00,,---,0.00,VWS V14.01,2013-05-14 03:03:00,
2013-05-13 20:08:00,80.9,53.7,29.84,WNW,290,0.0,2.0,39,0.00,,---,0.00,VWS V14.01,2013-05-14 03:08:00,
2013-05-13 20:13:00,80.6,53.4,29.85,WNW,292,0.0,2.0,39,0.00,,---,0.00,VWS V14.01,2013-05-14 03:13:00,
2013-05-13 20:15:00,80.5,53.3,29.85,NNW,331,0.0,3.0,39,0.00,,---,0.00,VWS V14.01,2013-05-14 03:15:00,
2013-05-13 20:18:00,80.4,53.9,29.85,NNW,332,0.0,0.0,40,0.00,,---,0.00,VWS V14.01,2013-05-14 03:18:00,
2013-05-13 20:23:00,80.2,53.7,29.85,NW,321,0.0,3.0,40,0.00,,---,0.00,VWS V14.01,2013-05-14 03:23:00,
2013-05-13 20:28:00,80.1,53.6,29.85,NW,322,0.0,3.0,40,0.00,,---,0.00,VWS V14.01,2013-05-14 03:28:00,
2013-05-13 20:30:00,80.0,53.5,29.85,NW,321,0.0,3.0,40,0.00,,---,0.00,VWS V14.01,2013-05-14 03:30:00,
2013-05-13 20:33:00,79.9,53.5,29.85,NW,321,0.0,0.0,40,0.00,,---,0.00,VWS V14.01,2013-05-14 03:33:00,
2013-05-13 20:38:00,79.8,51.2,29.86,NW,325,1.0,5.0,37,0.00,,---,0.00,VWS V14.01,2013-05-14 03:38:00,
2013-05-13 20:43:00,79.7,51.9,29.85,NW,326,0.0,5.0,38,0.00,,---,0.00,VWS V14.01,2013-05-14 03:43:00,
2013-05-13 20:45:00,79.6,51.1,29.86,NW,326,0.0,5.0,37,0.00,,---,0.00,VWS V14.01,2013-05-14 03:45:00,
2013-05-13 20:48:00,79.5,51.0,29.86,NNW,327,0.0,1.0,37,0.00,,---,0.00,VWS V14.01,2013-05-14 03:48:00,
2013-05-13 20:53:00,79.3,50.1,29.86,NW,326,0.0,1.0,36,0.00,,---,0.00,VWS V14.01,2013-05-14 03:53:00,
2013-05-13 20:58:00,79.0,49.8,29.86,NW,326,0.0,2.0,36,0.00,,---,0.00,VWS V14.01,2013-05-14 03:58:00,
2013-05-13 21:00:00,78.9,49.0,29.86,NW,326,0.0,2.0,35,0.00,,---,0.00,VWS V14.01,2013-05-14 04:00:00,
2013-05-13 21:01:00,78.9,49.0,29.85,NW,326,0.0,0.0,35,0.00,,---,0.00,VWS V14.01,2013-05-14 04:01:00,
2013-05-13 21:06:00,78.9,47.4,29.85,WNW,302,0.0,3.0,33,0.00,,---,0.00,VWS V14.01,2013-05-14 04:06:00,
2013-05-13 21:11:00,79.1,46.7,29.85,NW,307,1.0,6.0,32,0.00,,---,0.00,VWS V14.01,2013-05-14 04:11:00,
2013-05-13 21:16:00,79.7,45.6,29.85,NNW,337,0.0,4.0,30,0.00,,---,0.00,VWS V14.01,2013-05-14 04:16:00,
2013-05-13 21:21:00,80.2,45.1,29.85,WNW,288,6.0,6.0,29,0.00,,---,0.00,VWS V14.01,2013-05-14 04:21:00,
2013-05-13 21:26:00,80.6,46.3,29.85,NW,311,2.0,6.0,30,0.00,,---,0.00,VWS V14.01,2013-05-14 04:26:00,
2013-05-13 21:30:00,80.7,46.4,29.85,NW,319,0.0,6.0,30,0.00,,---,0.00,VWS V14.01,2013-05-14 04:30:00,
2013-05-13 21:31:00,80.7,45.5,29.85,NW,319,0.0,3.0,29,0.00,,---,0.00,VWS V14.01,2013-05-14 04:31:00,
2013-05-13 21:36:00,80.7,46.4,29.86,NW,321,0.0,3.0,30,0.00,,---,0.00,VWS V14.01,2013-05-14 04:36:00,
2013-05-13 21:41:00,80.5,46.2,29.86,NW,321,0.0,3.0,30,0.00,,---,0.00,VWS V14.01,2013-05-14 04:41:00,
2013-05-13 21:45:00,80.2,46.0,29.86,NW,321,0.0,3.0,30,0.00,,---,0.00,VWS V14.01,2013-05-14 04:45:00,
2013-05-13 21:46:00,80.1,46.8,29.86,NW,321,0.0,0.0,31,0.00,,---,0.00,VWS V14.01,2013-05-14 04:46:00,
2013-05-13 21:51:00,79.6,46.3,29.86,NW,321,0.0,0.0,31,0.00,,---,0.00,VWS V14.01,2013-05-14 04:51:00,
2013-05-13 21:56:00,79.1,47.6,29.86,NW,320,0.0,0.0,33,0.00,,---,0.00,VWS V14.01,2013-05-14 04:56:00,
2013-05-13 22:01:00,78.5,48.6,29.86,NW,321,0.0,0.0,35,0.00,,---,0.00,VWS V14.01,2013-05-14 05:01:00,
2013-05-13 22:06:00,77.9,48.1,29.86,NW,321,0.0,0.0,35,0.00,,---,0.00,VWS V14.01,2013-05-14 05:06:00,
2013-05-13 22:11:00,77.5,49.2,29.86,NW,321,0.0,3.0,37,0.00,,---,0.00,VWS V14.01,2013-05-14 05:11:00,
2013-05-13 22:15:00,77.2,49.7,29.86,NE,34,2.0,4.0,38,0.00,,---,0.00,VWS V14.01,2013-05-14 05:15:00,
2013-05-13 22:16:00,77.1,49.6,29.86,NE,34,0.0,2.0,38,0.00,,---,0.00,VWS V14.01,2013-05-14 05:16:00,
2013-05-13 22:21:00,76.6,49.1,29.86,NE,50,0.0,5.0,38,0.00,,---,0.00,VWS V14.01,2013-05-14 05:21:00,
2013-05-13 22:26:00,76.1,48.7,29.87,NE,50,0.0,5.0,38,0.00,,---,0.00,VWS V14.01,2013-05-14 05:26:00,
2013-05-13 22:30:00,75.7,48.3,29.87,NE,49,0.0,5.0,38,0.00,,---,0.00,VWS V14.01,2013-05-14 05:30:00,
2013-05-13 22:31:00,75.7,48.3,29.87,NE,49,0.0,0.0,38,0.00,,---,0.00,VWS V14.01,2013-05-14 05:31:00,
2013-05-13 22:36:00,75.2,47.9,29.87,NE,51,0.0,0.0,38,0.00,,---,0.00,VWS V14.01,2013-05-14 05:36:00,
2013-05-13 22:42:00,74.8,48.2,29.87,NE,49,0.0,0.0,39,0.00,,---,0.00,VWS V14.01,2013-05-14 05:42:00,
2013-05-13 22:47:00,74.6,48.7,29.87,NE,49,0.0,0.0,40,0.00,,---,0.00,VWS V14.01,2013-05-14 05:47:00,
2013-05-13 22:52:00,74.3,49.1,29.87,NE,51,0.0,0.0,41,0.00,,---,0.00,VWS V14.01,2013-05-14 05:52:00,
2013-05-13 22:57:00,74.1,48.9,29.87,NE,49,0.0,0.0,41,0.00,,---,0.00,VWS V14.01,2013-05-14 05:57:00,
2013-05-13 23:00:00,74.0,48.8,29.87,NE,51,0.0,0.0,41,0.00,,---,0.00,VWS V14.01,2013-05-14 06:00:00,
2013-05-13 23:02:00,74.0,48.8,29.87,NE,49,0.0,0.0,41,0.00,,---,0.00,VWS V14.01,2013-05-14 06:02:00,
2013-05-13 23:07:00,73.9,48.7,29.87,NE,51,0.0,0.0,41,0.00,,---,0.00,VWS V14.01,2013-05-14 06:07:00,
2013-05-13 23:12:00,73.8,48.7,29.86,NE,50,0.0,1.0,41,0.00,,---,0.00,VWS V14.01,2013-05-14 06:12:00,
2013-05-13 23:15:00,73.7,48.6,29.87,NE,51,0.0,3.0,41,0.00,,---,0.00,VWS V14.01,2013-05-14 06:15:00,
2013-05-13 23:17:00,73.7,48.6,29.86,NE,49,0.0,0.0,41,0.00,,---,0.00,VWS V14.01,2013-05-14 06:17:00,
2013-05-13 23:22:00,73.5,49.0,29.86,NE,51,0.0,2.0,42,0.00,,---,0.00,VWS V14.01,2013-05-14 06:22:00,
2013-05-13 23:27:00,73.3,48.2,29.86,NE,49,0.0,2.0,41,0.00,,---,0.00,VWS V14.01,2013-05-14 06:27:00,
2013-05-13 23:30:00,73.1,47.4,29.86,NE,50,0.0,2.0,40,0.00,,---,0.00,VWS V14.01,2013-05-14 06:30:00,
2013-05-13 23:32:00,73.1,48.0,29.86,NE,50,0.0,0.0,41,0.00,,---,0.00,VWS V14.01,2013-05-14 06:32:00,
2013-05-13 23:37:00,72.9,47.8,29.87,NE,49,0.0,0.0,41,0.00,,---,0.00,VWS V14.01,2013-05-14 06:37:00,
2013-05-13 23:42:00,72.7,46.3,29.87,NE,50,0.0,0.0,39,0.00,,---,0.00,VWS V14.01,2013-05-14 06:42:00,
2013-05-13 23:45:00,72.7,47.7,29.87,NE,50,0.0,0.0,41,0.00,,---,0.00,VWS V14.01,2013-05-14 06:45:00,
2013-05-13 23:47:00,72.6,46.9,29.87,NE,51,0.0,0.0,40,0.00,,---,0.00,VWS V14.01,2013-05-14 06:47:00,
2013-05-13 23:52:00,72.5,46.8,29.86,NE,49,0.0,0.0,40,0.00,,---,0.00,VWS V14.01,2013-05-14 06:52:00,
2013-05-13 23:57:00,72.4,47.4,29.87,NE,49,0.0,0.0,41,0.00,,---,0.00,VWS V14.01,2013-05-14 06:57:00,